N510BN KFLL-KFXE

Flight info

Callsign N510BN
Flight time 0h -26m
Altitude 1500
Route DCT
Aircraft BN2P/L-SD/C

Departure

Time 2026-04-18 04:28
Airport Fort Lauderdale Hollywood International Airport (KFLL)

Arrival

Time 2026-04-18 04:02
Airport Fort Lauderdale Executive Airport (KFXE)
Time Latitude Longitude Altitude Speed Heading
2026-04-18 04:02 26.06786 -80.15898 14 ft 0 kts 180°
2026-04-18 04:18 26.06787 -80.15891 15 ft 2 kts 16°
2026-04-18 04:18 26.06796 -80.15888 15 ft 0 kts 19°
2026-04-18 04:19 26.06797 -80.15874 16 ft 5 kts 112°
2026-04-18 04:19 26.06770 -80.15834 17 ft 2 kts 89°
2026-04-18 04:20 26.06765 -80.15775 19 ft 7 kts 180°
2026-04-18 04:20 26.06753 -80.15774 19 ft 0 kts 172°
2026-04-18 04:26 26.06752 -80.15774 19 ft 1 kts 172°
2026-04-18 04:26 26.06698 -80.15785 18 ft 14 kts 238°
2026-04-18 04:26 26.06614 -80.15818 15 ft 13 kts 161°
2026-04-18 04:26 26.06590 -80.15645 23 ft 50 kts 93°
2026-04-18 04:27 26.06582 -80.15063 37 ft 96 kts 91°
2026-04-18 04:27 26.06574 -80.14248 192 ft 113 kts 91°
2026-04-18 04:27 26.06524 -80.13339 384 ft 120 kts 96°
2026-04-18 04:27 26.06422 -80.12390 494 ft 126 kts 94°
2026-04-18 04:28 26.06760 -80.11519 530 ft 132 kts 39°
2026-04-18 04:28 26.07679 -80.11399 593 ft 139 kts 350°
2026-04-18 04:28 26.08582 -80.11656 742 ft 128 kts 351°
2026-04-18 04:28 26.09375 -80.12068 910 ft 124 kts 331°
2026-04-18 04:29 26.09857 -80.12400 1026 ft 122 kts 333°
2026-04-18 04:29 26.10579 -80.12879 1221 ft 121 kts 333°
2026-04-18 04:29 26.11303 -80.13359 1421 ft 122 kts 334°
2026-04-18 04:29 26.12046 -80.13868 1494 ft 132 kts 333°
2026-04-18 04:30 26.12810 -80.14401 1501 ft 132 kts 333°
2026-04-18 04:30 26.13330 -80.14762 1500 ft 132 kts 332°
2026-04-18 04:30 26.14100 -80.15327 1484 ft 134 kts 320°
2026-04-18 04:30 26.14465 -80.16262 1497 ft 135 kts 284°
2026-04-18 04:31 26.14703 -80.17283 1511 ft 135 kts 287°
2026-04-18 04:31 26.14789 -80.18313 1490 ft 136 kts 257°
2026-04-18 04:31 26.14545 -80.19333 1499 ft 137 kts 254°
2026-04-18 04:31 26.14326 -80.20365 1501 ft 137 kts 255°
2026-04-18 04:32 26.14101 -80.21389 1502 ft 136 kts 255°
2026-04-18 04:32 26.13872 -80.22420 1503 ft 138 kts 255°
2026-04-18 04:32 26.13650 -80.23454 1498 ft 137 kts 256°
2026-04-18 04:32 26.13425 -80.24469 1499 ft 137 kts 255°
2026-04-18 04:33 26.13199 -80.25493 1499 ft 136 kts 255°
2026-04-18 04:33 26.12968 -80.26512 1495 ft 135 kts 255°
2026-04-18 04:33 26.12750 -80.27501 1490 ft 134 kts 255°
2026-04-18 04:33 26.12525 -80.28514 1493 ft 135 kts 255°
2026-04-18 04:34 26.12299 -80.29526 1499 ft 134 kts 255°
2026-04-18 04:34 26.12077 -80.30540 1511 ft 137 kts 255°
2026-04-18 04:34 26.11845 -80.31590 1516 ft 141 kts 255°
2026-04-18 04:34 26.11604 -80.32664 1517 ft 145 kts 255°
2026-04-18 04:35 26.11359 -80.33750 1512 ft 145 kts 256°
2026-04-18 04:35 26.11210 -80.34859 1514 ft 146 kts 264°
2026-04-18 04:35 26.11136 -80.35983 1510 ft 146 kts 270°
2026-04-18 04:35 26.11308 -80.37092 1507 ft 146 kts 289°
2026-04-18 04:36 26.11589 -80.38104 1498 ft 120 kts 288°
2026-04-18 04:36 26.11837 -80.38863 1501 ft 90 kts 294°
2026-04-18 04:36 26.12045 -80.39453 1486 ft 78 kts 294°
2026-04-18 04:36 26.12232 -80.40001 1504 ft 74 kts 294°
2026-04-18 04:37 26.12426 -80.40526 1487 ft 73 kts 313°